Location: Andershausen
(51.8462°N, 9.8595°E)
Time: 00:05:23
(UTC+00:00)

Cosmos 2344 - Pass Details

Date: 18 November 2025
Orbit: 1197 x 3044 km, 63.3° (Epoch: 04 December)

Event Time Altitude Azimuth Distance (km) Brightness Sun altitude
Rises 16:07:40 0° 304° (WNW) 4,112 6.8 -6.6°
Reaches altitude 10° 16:10:23 10° 311° (NW) 3,181 6.1 -7.0°
Maximum altitude 16:17:30 46° 24° (NNE) 1,755 4.1 -8.0°
Drops below altitude 10° 16:26:20 10° 97° (E) 3,925 5.6 -9.3°
Enters shadow 16:28:28 - 101° (E) 4,634 6.0 -9.6°
